• In Czech Republic
  • List of Countries
  • For 7 days
  • Water Temperature
  • Satellite Maps
  • Weather Map
  • Weather Widgets
  • user-avatar
    Login

    Hourly Weather Canillo

    Today, 23 July, Sunday

    Time Temperature Precipitation Wind Pressure Humidity
    00:00 +12°C° 0 mm 1 mps 622 mmHg 92%
    01:00 +12°C° 0 mm 1 mps 622 mmHg 93%
    02:00 +12°C° 0 mm 1 mps 622 mmHg 93%
    03:00 +11°C° 0 mm 1 mps 622 mmHg 94%
    04:00 +12°C° 0 mm 1 mps 623 mmHg 92%
    05:00 +12°C° 0 mm 1 mps 623 mmHg 91%
    06:00 +12°C° 0 mm 1 mps 623 mmHg 89%
    07:00 +14°C° 0 mm 2 mps 624 mmHg 80%
    08:00 +16°C° 0 mm 2 mps 625 mmHg 70%
    09:00 +18°C° 0 mm 2 mps 625 mmHg 60%
    10:00 +19°C° 0 mm 3 mps 626 mmHg 55%
    11:00 +20°C° 0 mm 3 mps 626 mmHg 50%
    12:00 +19°C° 0 mm 3 mps 626 mmHg 58%
    13:00 +19°C° 0.5 mm 3 mps 625 mmHg 60%
    14:00 +18°C° 0.5 mm 3 mps 625 mmHg 63%
    15:00 +18°C° 0.5 mm 3 mps 624 mmHg 65%
    16:00 +17°C° 1 mm 2 mps 624 mmHg 69%
    17:00 +16°C° 1 mm 2 mps 624 mmHg 73%
    18:00 +16°C° 1 mm 2 mps 623 mmHg 78%
    19:00 +14°C° 0.2 mm 1 mps 623 mmHg 83%
    20:00 +13°C° 0.2 mm 1 mps 622 mmHg 88%
    21:00 +12°C° 0.2 mm 1 mps 622 mmHg 93%
    22:00 +12°C° 0.1 mm 1 mps 622 mmHg 94%
    23:00 +11°C° 0.1 mm 1 mps 622 mmHg 94%

    Tomorrow, 24 July, Monday

    Time Temperature Precipitation Wind Pressure Humidity
    00:00 +11°C° 0.1 mm 1 mps 622 mmHg 95%
    01:00 +11°C° 0.2 mm 1 mps 621 mmHg 95%
    02:00 +11°C° 0.2 mm 1 mps 621 mmHg 95%
    03:00 +10°C° 0.2 mm 1 mps 621 mmHg 95%
    04:00 +10°C° 0.1 mm 2 mps 621 mmHg 93%
    05:00 +10°C° 0.1 mm 2 mps 621 mmHg 91%
    06:00 +10°C° 0.1 mm 2 mps 621 mmHg 88%
    07:00 +13°C° 0 mm 2 mps 622 mmHg 80%
    08:00 +14°C° 0 mm 2 mps 622 mmHg 72%
    09:00 +14°C° 0 mm 3 mps 623 mmHg 64%
    10:00 +16°C° 0 mm 3 mps 623 mmHg 58%
    11:00 +17°C° 0 mm 3 mps 623 mmHg 52%
    12:00 +18°C° 0 mm 4 mps 624 mmHg 47%
    13:00 +18°C° 0 mm 4 mps 624 mmHg 46%
    14:00 +19°C° 0 mm 4 mps 624 mmHg 46%
    15:00 +19°C° 0 mm 4 mps 623 mmHg 46%
    16:00 +17°C° 0 mm 4 mps 623 mmHg 51%
    17:00 +15°C° 0 mm 4 mps 623 mmHg 55%
    18:00 +14°C° 0 mm 4 mps 622 mmHg 60%
    19:00 +12°C° 0.1 mm 4 mps 622 mmHg 68%
    20:00 +10°C° 0.1 mm 3 mps 622 mmHg 75%
    21:00 +9°C° 0.1 mm 3 mps 621 mmHg 83%
    22:00 +8°C° 0 mm 3 mps 621 mmHg 83%
    23:00 +7°C° 0 mm 3 mps 621 mmHg 83%

    Day after tomorrow, 25 July, Tuesday

    Time Temperature Precipitation Wind Pressure Humidity
    00:00 +7°C° 0 mm 3 mps 620 mmHg 82%
    01:00 +5°C° 0 mm 3 mps 620 mmHg 80%
    02:00 +5°C° 0 mm 3 mps 620 mmHg 77%
    03:00 +4°C° 0 mm 3 mps 619 mmHg 75%
    04:00 +5°C° 0 mm 3 mps 620 mmHg 73%
    05:00 +7°C° 0 mm 3 mps 620 mmHg 72%
    06:00 +7°C° 0 mm 3 mps 620 mmHg 71%
    07:00 +9°C° 0 mm 3 mps 621 mmHg 64%
    08:00 +11°C° 0 mm 3 mps 621 mmHg 57%
    09:00 +14°C° 0 mm 3 mps 622 mmHg 50%
    10:00 +16°C° 0 mm 3 mps 622 mmHg 47%
    11:00 +17°C° 0 mm 3 mps 622 mmHg 44%
    12:00 +18°C° 0 mm 4 mps 623 mmHg 40%
    13:00 +18°C° 0 mm 4 mps 622 mmHg 40%
    14:00 +18°C° 0 mm 4 mps 622 mmHg 40%
    15:00 +18°C° 0 mm 4 mps 622 mmHg 40%
    16:00 +17°C° 0 mm 4 mps 621 mmHg 46%
    17:00 +15°C° 0 mm 4 mps 621 mmHg 51%
    18:00 +14°C° 0 mm 3 mps 621 mmHg 56%
    19:00 +12°C° 0.1 mm 3 mps 620 mmHg 66%
    20:00 +10°C° 0.1 mm 3 mps 620 mmHg 75%
    21:00 +8°C° 0.1 mm 3 mps 619 mmHg 85%
    22:00 +8°C° 0 mm 3 mps 619 mmHg 85%
    23:00 +8°C° 0 mm 3 mps 619 mmHg 86%

    26 July, Wednesday

    Time Temperature Precipitation Wind Pressure Humidity
    00:00 +7°C° 0 mm 3 mps 619 mmHg 87%
    01:00 +7°C° 0 mm 3 mps 619 mmHg 86%
    02:00 +7°C° 0 mm 2 mps 618 mmHg 86%
    03:00 +6°C° 0 mm 2 mps 618 mmHg 86%
    04:00 +6°C° 0 mm 2 mps 618 mmHg 82%
    05:00 +7°C° 0 mm 2 mps 618 mmHg 79%
    06:00 +7°C° 0 mm 2 mps 619 mmHg 75%
    07:00 +10°C° 0 mm 2 mps 620 mmHg 65%
    08:00 +13°C° 0 mm 2 mps 621 mmHg 56%
    09:00 +15°C° 0 mm 2 mps 622 mmHg 46%
    10:00 +17°C° 0 mm 2 mps 622 mmHg 43%
    11:00 +18°C° 0 mm 3 mps 622 mmHg 40%
    12:00 +19°C° 0 mm 3 mps 623 mmHg 37%
    13:00 +20°C° 0 mm 3 mps 623 mmHg 38%
    14:00 +20°C° 0 mm 3 mps 622 mmHg 38%
    15:00 +20°C° 0 mm 3 mps 622 mmHg 39%
    16:00 +19°C° 0 mm 3 mps 622 mmHg 44%
    17:00 +18°C° 0 mm 3 mps 621 mmHg 49%
    18:00 +17°C° 0 mm 2 mps 621 mmHg 55%
    19:00 +15°C° 0 mm 2 mps 620 mmHg 62%
    20:00 +13°C° 0 mm 2 mps 620 mmHg 70%
    21:00 +10°C° 0 mm 2 mps 619 mmHg 78%
    22:00 +10°C° 0 mm 2 mps 619 mmHg 76%
    23:00 +9°C° 0 mm 2 mps 619 mmHg 74%

    27 July, Thursday

    Time Temperature Precipitation Wind Pressure Humidity
    00:00 +9°C° 0 mm 2 mps 619 mmHg 72%
    01:00 +10°C° 0 mm 1 mps 619 mmHg 70%
    02:00 +10°C° 0 mm 1 mps 619 mmHg 69%
    03:00 +10°C° 0 mm 1 mps 619 mmHg 68%
    04:00 +11°C° 0 mm 1 mps 619 mmHg 67%
    05:00 +12°C° 0 mm 1 mps 620 mmHg 65%
    06:00 +12°C° 0 mm 1 mps 620 mmHg 64%
    07:00 +15°C° 0 mm 1 mps 621 mmHg 58%
    08:00 +18°C° 0 mm 1 mps 622 mmHg 51%
    09:00 +21°C° 0 mm 1 mps 623 mmHg 45%
    10:00 +22°C° 0 mm 1 mps 624 mmHg 42%
    11:00 +23°C° 0 mm 1 mps 624 mmHg 40%
    12:00 +25°C° 0 mm 2 mps 624 mmHg 38%
    13:00 +24°C° 0 mm 2 mps 624 mmHg 39%
    14:00 +24°C° 0 mm 2 mps 624 mmHg 40%
    15:00 +24°C° 0 mm 2 mps 623 mmHg 41%
    16:00 +23°C° 0 mm 2 mps 623 mmHg 47%
    17:00 +22°C° 0 mm 1 mps 623 mmHg 53%
    18:00 +21°C° 0 mm 1 mps 622 mmHg 59%
    19:00 +19°C° 0.1 mm 1 mps 622 mmHg 65%
    20:00 +16°C° 0.1 mm 1 mps 622 mmHg 72%
    21:00 +15°C° 0.1 mm 1 mps 622 mmHg 78%
    22:00 +14°C° 0.1 mm 1 mps 622 mmHg 79%
    23:00 +14°C° 0.1 mm 1 mps 621 mmHg 80%

    28 July, Friday

    Time Temperature Precipitation Wind Pressure Humidity
    00:00 +13°C° 0.1 mm 1 mps 621 mmHg 82%
    01:00 +13°C° 0.1 mm 1 mps 621 mmHg 82%
    02:00 +13°C° 0.1 mm 1 mps 621 mmHg 82%
    03:00 +13°C° 0.1 mm 1 mps 621 mmHg 83%
    04:00 +13°C° 0 mm 1 mps 622 mmHg 80%
    05:00 +14°C° 0 mm 1 mps 622 mmHg 78%
    06:00 +15°C° 0 mm 1 mps 623 mmHg 75%
    07:00 +18°C° 0 mm 1 mps 624 mmHg 67%
    08:00 +20°C° 0 mm 1 mps 625 mmHg 58%
    09:00 +21°C° 0 mm 2 mps 626 mmHg 49%
    10:00 +23°C° 0.2 mm 2 mps 626 mmHg 47%
    11:00 +24°C° 0.2 mm 2 mps 626 mmHg 45%
    12:00 +25°C° 0.2 mm 3 mps 627 mmHg 42%
    13:00 +26°C° 0.2 mm 3 mps 626 mmHg 42%
    14:00 +26°C° 0.2 mm 3 mps 626 mmHg 42%
    15:00 +26°C° 0.2 mm 3 mps 626 mmHg 42%
    16:00 +25°C° 0 mm 2 mps 626 mmHg 46%
    17:00 +24°C° 0 mm 2 mps 625 mmHg 51%
    18:00 +23°C° 0 mm 2 mps 625 mmHg 55%
    19:00 +19°C° 0 mm 2 mps 624 mmHg 62%
    20:00 +18°C° 0 mm 1 mps 624 mmHg 69%
    21:00 +15°C° 0 mm 1 mps 623 mmHg 76%
    22:00 +15°C° 0 mm 1 mps 623 mmHg 76%
    23:00 +15°C° 0 mm 1 mps 623 mmHg 75%
    Show more